STARLINK-35367

Satellite information

Favourite Embed

Satellite Type and Status

PAYLOADIN ORBIT

Key statistics

Satellite STARLINK-35367 at a glance.

Uptime

20

Days in orbit

Revolutions

≈ 15.6

Per day

Orbit

LEO

Low Earth Orbit

Inclination

53.2

Latest

Satellite identification and parameters

Extended collection of information and parameters for STARLINK-35367.

Object identification

Identified? True

Debris? False

Object name: STARLINK-35367

International designator: 2025-224B

Object number (NORAD): 65883

Object ID (CCSDS): 65883

Country: UNITED STATES OF AMERICA (US)

Current information (Y/N): Y

Orbital parameters

Period: 92.114 minutes

Inclination: 53.1599 deg

SMA: 6756.315 km

Apoapsis: 378.901 km

Periapsis: 377.459 km

RAAN: 275.5138 deg

Eccentricy: 0.00010678

Argument of periapsis: 96.8607 deg

Mean anomaly: 266.1266 deg

Mean motion: 15.63284174 rev/day

Mean motion (dot): -0.01998001 rev/day2

B* drag term: -0.024304651 1/REarth

Two-line elements (TLE)

Creation date: Oct. 27, 2025, 2:46 a.m.

Reference frame: TEME

Reference center: EARTH

Epoch: Oct. 26, 2025, 10 p.m. UTC

TLE line 0: 0 STARLINK-35367

TLE line 1: 1 65883U 25224B 25299.91670139 -.01998001 00000-0 -24305-1 0 9993

TLE line 2: 2 65883 53.1599 275.5138 0001068 96.8607 266.1266 15.63284174 4336

Live tracking on map

Real-time ground track for satellite STARLINK-35367.

In-orbit conjunctions

There are no conjunctions computed for STARLINK-35367, at the moment. Check back to stay up to date, as we update our databases every day.

Go to all conjunctions

Associated space launch

A batch of 28 satellites for the Starlink mega-constellation - SpaceX's project for space-based Internet communication system.

STARLINK-35367 was lifted into orbit during the mission ‘Falcon 9 Block 5 | Starlink Group 10-59’, on board a Falcon 9 space rocket.

The launch took place on Oct. 7, 2025, 6:46 a.m. from Space Launch Complex 40.

For more information about the launch, click the button.

Launch to space Falcon 9 Block 5 | Starlink Group 10-59
Falcon 9 Block 5 | Starlink Group 10-59

Agency: SpaceX

Status: Launch Successful

Launch date: Oct. 7, 2025, 6:46 a.m. UTC

Rocket: Falcon 9

Launch pad: Space Launch Complex 40

Location: Cape Canaveral SFS, FL, USA

...

Latest news about this satellite

News about space launch
Launch Roundup: Falcon 9 to launch five times, Blue Origin to launch crew

SpaceX is set to dominate the launch manifest for the first whole week of October… The post Launch Roundup: Falcon 9 to launch five times, Blue Origin to launch crew appeared first on NASASpaceFlight.com.

News about space launch
Live coverage: SpaceX to launch Falcon 9 rocket on 90th Starlink mission of 2025

The Starlink 10-59 mission will add 28 broadband internet satellites into the growing megaconstellation. SpaceX is targeting liftoff from pad 40 at Cape Canaveral Space Force Station during a launch window that opens at 12:10 a.m. EDT (0410 UTC).

News about space launch
Launch Roundup: Falcon 9 launches Starlink and Kuiper satellites

SpaceX is scheduled to launch up to three times this week, with each mission planned… The post Launch Roundup: Falcon 9 launches Starlink and Kuiper satellites appeared first on NASASpaceFlight.com.


Newsletter sign-up

Weekly statistics, charts and insights to help you stay on top of the space industry.